Seward, AK

5:08 PM AKDT on March 26, 2017 (GMT -0800)
Seward

Weather History for PAWD - September, 2013

Change the Weather History Date:

Saturday, September 28, 2013

  Actual Average Record
Temperature  
Mean Temperature 52 °F -  
Max Temperature 57 °F 50 °F 62 °F (2014)
Min Temperature 46 °F 39 °F 3 °F (1971)
Degree Days  
Heating Degree Days 14    
Growing Degree Days 2 (Base 50)    
Moisture  
Dew Point 36 °F    
Average Humidity 56    
Maximum Humidity 77    
Minimum Humidity 42    
Precipitation  
Precipitation 0.00 in - - ()
Sea Level Pressure  
Sea Level Pressure 29.06 in    
Wind  
Wind Speed 13 mph (North)    
Max Wind Speed 22 mph    
Max Gust Speed 32 mph    
Visibility 10 miles    
Events      
Averages and records for this station are not official NWS values.
T = Trace of Precipitation, MM = Missing Value Source: NWS Daily Summary

Daily Weather History Graph

Daily Weather History Graph

Search for Another Location

Airport or City:

Trip Planner

Search our weather history database for the weather conditions in past years. The results will help you decide how hot, cold, wet, or windy it might be!

Date:

Astronomy

Sep. 28, 2013 Rise Set
Actual Time 7:57 AM AKDT 7:37 PM AKDT
Civil Twilight 7:15 AM AKDT 8:19 PM AKDT
Nautical Twilight 6:26 AM AKDT 9:08 PM AKDT
Astronomical Twilight 5:33 AM AKDT 10:00 PM AKDT
Moon 12:34 AM AKDT (9/28) 5:13 PM AKDT (9/28)
Length of Visible Light 13h 03m
Length of Day
11h 40m
Waning Crescent, 34% of the Moon is Illuminated
Sep 28
Waning Crescent
Oct 4
New
Oct 11
First Quarter
Oct 18
Full
Oct 26
Last Quarter

Hourly Weather History & Observations

Time (AKDT) Temp. Dew Point Humidity Pressure Visibility Wind Dir Wind Speed Gust Speed Precip Events Conditions
12:53 AM 48.0 °F 39.9 °F 74% 29.11 in 10.0 mi NNE 11.5 mph - N/A   Overcast
1:53 AM 48.0 °F 41.0 °F 77% 29.11 in 10.0 mi NNE 10.4 mph - N/A   Overcast
2:53 AM 50.0 °F 39.0 °F 66% 29.11 in 10.0 mi North 15.0 mph 21.9 mph N/A   Overcast
3:53 AM 48.9 °F 39.0 °F 69% 29.11 in 10.0 mi NNE 10.4 mph 19.6 mph N/A   Overcast
4:53 AM 48.9 °F 39.0 °F 69% 29.10 in 10.0 mi NNE 16.1 mph 25.3 mph 0.00 in   Overcast
5:53 AM 48.0 °F 39.0 °F 71% 29.10 in 10.0 mi NNE 15.0 mph 23.0 mph N/A   Overcast
6:53 AM 46.9 °F 39.0 °F 74% 29.09 in 10.0 mi NNE 11.5 mph - N/A   Clear
7:53 AM 48.0 °F 37.9 °F 68% 29.09 in 10.0 mi NNE 13.8 mph 19.6 mph N/A   Clear
8:53 AM 48.9 °F 37.0 °F 64% 29.08 in 10.0 mi NNE 10.4 mph 23.0 mph N/A   Clear
9:53 AM 51.1 °F 37.0 °F 59% 29.08 in 10.0 mi NNE 8.1 mph - N/A   Clear
10:53 AM 52.0 °F 37.0 °F 57% 29.08 in 10.0 mi North 9.2 mph - N/A   Clear
11:53 AM 54.0 °F 37.0 °F 53% 29.06 in 10.0 mi NNE 13.8 mph 20.7 mph N/A   Clear
12:53 PM 55.0 °F 36.0 °F 49% 29.05 in 10.0 mi North 12.7 mph - N/A   Clear
1:53 PM 57.0 °F 34.0 °F 42% 29.03 in 10.0 mi NNW 15.0 mph 25.3 mph N/A   Clear
2:53 PM 57.0 °F 34.0 °F 42% 29.02 in 10.0 mi NNW 19.6 mph 27.6 mph N/A   Clear
3:53 PM 57.0 °F 34.0 °F 42% 29.01 in 10.0 mi NW 17.3 mph 27.6 mph N/A   Clear
4:53 PM 55.9 °F 34.0 °F 44% 29.01 in 10.0 mi NW 21.9 mph 32.2 mph N/A   Clear
5:53 PM 55.0 °F 34.0 °F 45% 29.01 in 10.0 mi NW 16.1 mph 26.5 mph N/A   Partly Cloudy
6:53 PM 54.0 °F 34.0 °F 47% 29.02 in 10.0 mi NNW 18.4 mph 28.8 mph N/A   Clear
7:53 PM 53.1 °F 33.1 °F 47% 29.02 in 10.0 mi NW 18.4 mph 29.9 mph N/A   Partly Cloudy
8:53 PM 53.1 °F 32.0 °F 45% 29.03 in 10.0 mi NW 16.1 mph 28.8 mph N/A   Partly Cloudy
9:53 PM 52.0 °F 34.0 °F 50% 29.05 in 10.0 mi North 10.4 mph 21.9 mph N/A   Clear
10:53 PM 52.0 °F 33.1 °F 49% 29.06 in 10.0 mi North 13.8 mph 25.3 mph N/A   Clear
11:53 PM 51.1 °F 32.0 °F 48% 29.07 in 10.0 mi NNW 13.8 mph 29.9 mph N/A   Clear